Location: Unspecified
(49.2170°N, 0.0000°E)
Time: 05:55:38
(UTC+00:00)

Courier 1B Rocket - Pass Details

Date: 29 January 2021
Orbit: 920 x 1202 km, 28.3° (Epoch: 05 March)

Event Time Altitude Azimuth Distance (km) Brightness Sun altitude
Rises 06:16:01 0° 225° (SW) 3,620 7.7 -13.0°
Reaches altitude 10° 06:20:57 10° 192° (SSW) 2,736 7.4 -12.2°
Maximum altitude 06:22:44 11° 176° (S) 2,677 7.5 -11.9°
Drops below altitude 10° 06:24:33 10° 160° (SSE) 2,789 7.9 -11.6°
Sets 06:29:46 0° 128° (SE) 3,824 9.5 -10.8°
